Weather History for KIML - July, 2013

Change the Weather History Date:

Sunday, July 14, 2013

  Actual Average Record
Temperature  
Mean Temperature 76 °F 77 °F  
Max Temperature 85 °F 92 °F 108 °F (1925)
Min Temperature 67 °F 62 °F 46 °F (1943)
Degree Days  
Heating Degree Days 0 0  
Month to date heating degree days 0 0  
Since 1 June heating degree days 24 34  
Cooling Degree Days 11 12  
Month to date cooling degree days 174 152  
Year to date cooling degree days 473 380  
Since 1 June cooling degree days 405 336  
Growing Degree Days 25 (Base 50)    
Moisture  
Dew Point 67 °F    
Average Humidity 80    
Maximum Humidity 97    
Minimum Humidity 62    
Precipitation  
Precipitation 0.98 in 0.11 in 2.30 in (1930)
Sea Level Pressure  
Sea Level Pressure 30.01 in    
Wind  
Wind Speed 8 mph (NNE)    
Max Wind Speed 29 mph    
Max Gust Speed 40 mph    
Visibility 8 miles    
Events Fog , Rain , Thunderstorm    
T = Trace of Precipitation, MM = Missing Value Source: NWS Daily Summary

Daily Weather History Graph

Daily Weather History Graph

Search for Another Location

Airport or City:

Trip Planner

Search our weather history database for the weather conditions in past years. The results will help you decide how hot, cold, wet, or windy it might be!

Date:

Astronomy

Jul. 14, 2013 Rise Set
Actual Time 5:28 AM MDT 8:16 PM MDT
Civil Twilight 4:55 AM MDT 8:48 PM MDT
Nautical Twilight 4:15 AM MDT 9:28 PM MDT
Astronomical Twilight 3:28 AM MDT 10:15 PM MDT
Moon 11:48 AM MDT (7/14) 11:27 PM MDT (7/14)
Length of Visible Light 15h 52m
Length of Day
14h 47m
Waxing Crescent, 35% of the Moon is Illuminated
Jul 14
Waxing Crescent
Jul 15
First Quarter
Jul 22
Full
Jul 29
Last Quarter
Aug 6
New

Hourly Weather History & Observations

Time (MDT) Temp. Heat Index Dew Point Humidity Pressure Visibility Wind Dir Wind Speed Gust Speed Precip Events Conditions
12:09 AM 73.4 °F - 62.6 °F 69% 29.99 in 10.0 mi NW 24.2 mph 34.5 mph N/A Thunderstorm Mostly Cloudy
12:38 AM 73.4 °F - 62.6 °F 69% 30.06 in 9.0 mi WSW 23.0 mph 34.5 mph 0.00 in Rain , Thunderstorm Light Thunderstorms and Rain
12:53 AM 72.0 °F - 63.0 °F 73% 29.91 in 5.0 mi West 28.8 mph 39.1 mph 0.05 in Rain , Thunderstorm Thunderstorms and Rain
1:50 AM 69.8 °F - 64.4 °F 83% 30.02 in 10.0 mi WSW 12.7 mph 20.7 mph 0.15 in   Clear
1:53 AM 70.0 °F - 64.9 °F 84% 29.90 in 10.0 mi West 10.4 mph 20.7 mph 0.15 in   Clear
2:53 AM 70.0 °F - 64.9 °F 84% 29.87 in 10.0 mi West 4.6 mph - 0.00 in Rain Light Rain
3:53 AM 70.0 °F - 64.9 °F 84% 29.85 in 10.0 mi NW 8.1 mph - 0.00 in   Clear
4:53 AM 70.0 °F - 64.9 °F 84% 29.84 in 10.0 mi NW 10.4 mph - N/A   Clear
5:53 AM 68.0 °F - 64.0 °F 87% 29.89 in 10.0 mi SSE 10.4 mph - N/A   Clear
6:53 AM 73.0 °F - 66.0 °F 79% 29.92 in 10.0 mi West 3.5 mph - N/A   Clear
7:53 AM 75.9 °F - 66.0 °F 71% 29.95 in 10.0 mi North 8.1 mph - N/A   Clear
8:53 AM 78.1 °F - 66.0 °F 66% 29.97 in 10.0 mi North 9.2 mph - N/A   Mostly Cloudy
9:53 AM 80.1 °F 82.1 °F 66.0 °F 62% 29.96 in 10.0 mi North 8.1 mph - N/A   Clear
10:53 AM 79.0 °F - 66.9 °F 66% 29.96 in 10.0 mi NNW 5.8 mph - N/A   Clear
11:53 AM 78.1 °F - 69.1 °F 74% 29.97 in 10.0 mi NNW 9.2 mph - N/A   Overcast
12:53 PM 80.1 °F 83.2 °F 70.0 °F 71% 29.98 in 10.0 mi North 3.5 mph - N/A   Partly Cloudy
1:53 PM 82.0 °F 85.9 °F 70.0 °F 67% 29.97 in 10.0 mi North 12.7 mph - N/A   Partly Cloudy
2:53 PM 82.0 °F 85.5 °F 69.1 °F 65% 29.95 in 10.0 mi North 10.4 mph - N/A   Overcast
3:24 PM 80.6 °F 83.9 °F 69.8 °F 70% 30.05 in 10.0 mi North 16.1 mph - N/A Thunderstorm Mostly Cloudy
3:43 PM 71.6 °F - 69.8 °F 94% 30.06 in 3.0 mi East 11.5 mph 20.7 mph 0.04 in Rain , Thunderstorm Light Thunderstorms and Rain
3:50 PM 69.8 °F - 68.0 °F 94% 30.07 in 2.0 mi ENE 15.0 mph 20.7 mph 0.12 in Rain , Thunderstorm Light Rain
3:53 PM 70.0 °F - 68.0 °F 93% 30.00 in 0.8 mi NE 13.8 mph - 0.27 in Rain , Thunderstorm Heavy Thunderstorms and Rain
4:00 PM 69.8 °F - 68.0 °F 94% 30.07 in 0.5 mi NNE 5.8 mph - 0.21 in Fog , Rain , Thunderstorm Heavy Thunderstorms and Rain
4:15 PM 69.8 °F - 68.0 °F 94% 30.08 in 0.8 mi NE 8.1 mph - 0.48 in Rain , Thunderstorm Heavy Thunderstorms and Rain
4:24 PM 69.8 °F - 69.8 °F 100% 30.08 in 1.2 mi NNE 4.6 mph - 0.54 in Rain , Thunderstorm Thunderstorms and Rain
4:31 PM 69.8 °F - 68.0 °F 94% 30.10 in 2.0 mi ENE 6.9 mph - 0.57 in Rain , Thunderstorm Thunderstorms and Rain
4:38 PM 69.8 °F - 68.0 °F 94% 30.10 in 3.0 mi NE 4.6 mph - 0.58 in Rain , Thunderstorm Light Thunderstorms and Rain
4:53 PM 70.0 °F - 68.0 °F 93% 30.03 in 5.0 mi NNE 5.8 mph - 0.59 in Rain , Thunderstorm Light Rain
5:05 PM 69.8 °F - 68.0 °F 94% 30.09 in 10.0 mi East 4.6 mph - 0.00 in Rain Light Rain
5:27 PM 69.8 °F - 68.0 °F 94% 30.09 in 10.0 mi NE 8.1 mph - 0.00 in Thunderstorm Mostly Cloudy
5:42 PM 69.8 °F - 68.0 °F 94% 30.09 in 10.0 mi NE 5.8 mph - 0.00 in   Partly Cloudy
5:53 PM 70.0 °F - 68.0 °F 93% 30.02 in 10.0 mi East 4.6 mph - 0.00 in   Partly Cloudy
6:01 PM 69.8 °F - 68.0 °F 94% 30.09 in 10.0 mi East 5.8 mph - N/A Thunderstorm Thunderstorm
6:20 PM 69.8 °F - 68.0 °F 94% 30.11 in 9.0 mi ENE 3.5 mph - N/A   Scattered Clouds
6:53 PM 71.1 °F - 69.1 °F 93% 30.04 in 6.0 mi North 3.5 mph - N/A   Mostly Cloudy
7:02 PM 71.6 °F - 69.8 °F 94% 30.13 in 6.0 mi NNE 5.8 mph - N/A   Mostly Cloudy
7:53 PM 71.1 °F - 69.1 °F 93% 30.03 in 6.0 mi East 3.5 mph - N/A   Scattered Clouds
8:53 PM 70.0 °F - 68.0 °F 93% 30.05 in 8.0 mi ESE 5.8 mph - N/A   Clear
9:53 PM 69.1 °F - 66.9 °F 93% 30.07 in 8.0 mi SE 6.9 mph - N/A   Clear
10:53 PM 68.0 °F - 64.9 °F 90% 30.09 in 10.0 mi SE 9.2 mph - N/A   Overcast
11:53 PM 66.9 °F - 64.0 °F 90% 30.11 in 10.0 mi SE 9.2 mph - N/A   Overcast